[TLELIST] Archives

 

Current TLEs

April 4th 2007 PDT

HST 1 20580U 90037B 07093.89873990 .00000533 00000-0 28626-4 0 8433 2 20580 028.4682 314.5452 0003458 028.3824 331.6957 15.00216966728791 ISS (ZARYA) 1 25544U 98067A 07094.48834007 .00023866 00000-0 13712-3 0 9569 2 25544 051.6334 124.7685 0016023 029.1526 077.1677 15.78460659479134 CXO 1 25867U 99040B 07093.62500000 .00000373 00000-0 00000+0 0 535 2 25867 061.4470 090.8836 6125369 285.3767 359.2990 00.37805889 1978 ____________________________________________________________________ These 2-Line ...Continue Reading

Current TLEs

April 3rd 2007 PDT

HST 1 20580U 90037B 07091.96947527 +.00000512 +00000-0 +26968-4 0 08598 2 20580 028.4683 327.1224 0003464 007.0208 353.0432 15.00215449728506 ISS (ZARYA) 1 25544U 98067A 07093.48146306 .00026736 00000-0 15343-3 0 9501 2 25544 051.6334 129.9738 0015823 024.8706 116.1298 15.78415689478976 CXO 1 25867U 99040B 07093.62500000 .00000373 00000-0 00000+0 0 535 2 25867 061.4470 090.8836 6125369 285.3767 359.2990 00.37805889 1978 ____________________________________________________________________ These 2-Line ...Continue Reading

Current TLEs

April 2nd 2007 PDT

HST 1 20580U 90037B 07091.96947527 .00000512 00000-0 26968-4 0 8420 2 20580 028.4683 327.1224 0003464 007.0208 353.0432 15.00215449728506 ISS (ZARYA) 1 25544U 98067A 07092.46842008 .00021101 00000-0 12234-3 0 9440 2 25544 051.6330 135.2121 0015938 020.1780 120.6018 15.78350759478815 CXO 1 25867U 99040B 07091.00000000 .00000325 00000-0 00000+0 0 526 2 25867 061.4327 090.9287 6122673 285.4386 001.8694 00.37805796 1960 ____________________________________________________________________ These 2-Line ...Continue Reading

Current TLEs

April 1st 2007 PDT

HST 1 20580U 90037B 07090.90505231 .00000511 00000-0 26914-4 0 8414 2 20580 028.4685 334.0616 0003466 354.9517 005.1036 15.00214714728340 ISS (ZARYA) 1 25544U 98067A 07091.45419692 .00022660 00000-0 13132-3 0 9390 2 25544 051.6312 140.4486 0015499 017.5026 116.6010 15.78316213478658 CXO 1 25867U 99040B 07091.00000000 .00000325 00000-0 00000+0 0 526 2 25867 061.4327 090.9287 6122673 285.4386 001.8694 00.37805796 1960 ____________________________________________________________________ These 2-Line ...Continue Reading

Current TLEs

March 31st 2007 PDT

HST 1 20580U 90037B 07089.10883764 .00000515 00000-0 27251-4 0 8402 2 20580 028.4685 345.7708 0003472 335.3216 024.7210 15.00213492728070 ISS (ZARYA) 1 25544U 98067A 07090.43111818 .00025657 00000-0 14831-3 0 9325 2 25544 051.6315 145.7426 0015838 013.0905 064.1090 15.78278631478495 CXO 1 25867U 99040B 07091.00000000 .00000325 00000-0 00000+0 0 526 2 25867 061.4327 090.9287 6122673 285.4386 001.8694 00.37805796 1960 ____________________________________________________________________ These 2-Line ...Continue Reading

Current TLEs

March 30th 2007 PDT

HST 1 20580U 90037B 07089.10883764 .00000515 00000-0 27251-4 0 8402 2 20580 028.4685 345.7708 0003472 335.3216 024.7210 15.00213492728070 ISS (ZARYA) 1 25544U 98067A 07089.48260944 .00027255 00000-0 15758-3 0 9250 2 25544 051.6316 150.6445 0016053 009.0661 075.3240 15.78230245478340 CXO 1 25867U 99040B 07088.29166667 .00000262 00000-0 00000+0 0 514 2 25867 061.4231 090.9881 6119229 285.4965 353.0978 00.37803858 1953 ____________________________________________________________________ These 2-Line ...Continue Reading

Current TLEs

March 29th 2007 PDT

HST 1 20580U 90037B 07087.84483488 .00000471 00000-0 23752-4 0 8391 2 20580 028.4685 354.0115 0003499 321.7661 038.2691 15.00212271727882 ISS (ZARYA) 1 25544U 98067A 07 88.45466850 .00027744 00000-0 15694-3 0 9184 2 25544 051.6307 155.9553 0015657 006.2105 353.9615 15.78181869478189 CXO 1 25867U 99040B 07088.29166667 .00000262 00000-0 00000+0 0 514 2 25867 061.4231 090.9881 6119229 285.4965 353.0978 00.37803858 1953 ____________________________________________________________________ These 2-Line ...Continue Reading

Current TLEs

March 28th 2007 PDT

HST 1 20580U 90037B 07085.91556583 +.00000398 +00000-0 +18114-4 0 08556 2 20580 028.4685 006.5897 0003514 300.9468 059.0774 15.00210559727598 ISS (ZARYA) 1 25544U 98067A 07087.46150192 .00027026 00000-0 15719-3 0 9117 2 25544 051.6332 161.0826 0015394 001.4869 112.3180 15.78116648478020 CXO 1 25867U 99040B 07085.66666667 .00000206 00000-0 00000+0 0 504 2 25867 061.4148 091.0388 6115486 285.5708 355.6746 00.37800422 1945 ____________________________________________________________________ These 2-Line ...Continue Reading

Current TLEs

March 27th 2007 PDT

HST 1 20580U 90037B 07086.18167164 .00000421 00000-0 19896-4 0 8385 2 20580 028.4686 004.8542 0003484 303.8254 056.2001 15.00210937727635 ISS (ZARYA) 1 25544U 98067A 07086.44698817 .00025786 00000-0 15064-3 0 9041 2 25544 051.6327 166.3239 0015069 357.7375 108.5853 15.78056082477868 CXO 1 25867U 99040B 07085.66666667 .00000206 00000-0 00000+0 0 504 2 25867 061.4148 091.0388 6115486 285.5708 355.6746 00.37800422 1945 ____________________________________________________________________ These 2-Line ...Continue Reading

Current TLEs

March 26th 2007 PDT

HST 1 20580U 90037B 07084.85114116 .00000356 00000-0 14824-4 0 8378 2 20580 028.4683 013.5289 0003538 289.6400 070.3810 15.00209637727439 ISS (ZARYA) 1 25544U 98067A 07085.43301225 .00026453 00000-0 15475-3 0 8994 2 25544 051.6332 171.5656 0015231 353.7732 108.3483 15.78005277477709 CXO 1 25867U 99040B 07085.66666667 .00000206 00000-0 00000+0 0 504 2 25867 061.4148 091.0388 6115486 285.5708 355.6746 00.37800422 1945 ____________________________________________________________________ These 2-Line ...Continue Reading
  • This mailing list is a public mailing list - anyone may join or leave, at any time.
  • This mailing list is announce-only.

International Space Station (ISS) / Hubble Space Telescope (HST) / Chandra X-Ray Observatory Orbital Data via EMAIL

Privacy Policy:

Private list